Zurück zum Katalog

CZ-6A DEB

AktivPO
NORAD 61292·DEBRIS·🇨🇳 China

Gestartet Aug 6, 2024 von Taiyuan Satellite Launch Center

Loading…

Nächste Überflüge (nächste 24 Stunden)

TLE

AktuellSource: Space-Track

Epoche: Sep 14, 2026, 10:34 UTC

1 61292U 24140TD  26257.44029887  .00001521  00000-0  33885-3 0  9994
2 61292  89.0344 263.6405 0095158 333.3249  26.3080 14.53665574108353

Verfolge CZ-6A DEB in Echtzeit mit AllMySat

Download on the App Store